Regional Weather Roundup
Issued by NWS

Home | Current Version | Previous Version | Text Only | Print | Product List | Glossary Off
Versions: 1 2 3 4 5 6 7 8 9 10 11 12 13 14 15 16 17 18 19 20 21 22 23 24 25 26 27 28 29 30 31 32 33 34 35 36 37 38 39 40 41 42 43 44 45 46 47 48 49 50

000
ASUS43 KLSX 201107
RWRMO

WEATHER SUMMARY FOR MISSOURI
NATIONAL WEATHER SERVICE SPRINGFIELD MO
600 AM CDT FRI OCT 20 2017

NOTE: "FAIR" INDICATES FEW OR NO CLOUDS BELOW 12,000 FEET WITH NO
       SIGNIFICANT WEATHER AND/OR OBSTRUCTIONS TO VISIBILITY.
       CURRENT SKY AND/OR WEATHER CONDITIONS ARE NOT AVAILABLE FOR
       CHILLICOTHE AND FARMINGTON.

MOZ001>031-035>038-043-044-053-054-201200-
...NORTHERN AND WESTERN MISSOURI...

CITY           SKY/WX    TMP DP  RH WIND       PRES   REMARKS
KANSAS CTY INT FAIR      58  52  80 S12       30.08R
KANSAS C DTWN  FAIR      58  53  84 SW8       30.08R
LEE`S SUMMIT   FAIR      57  52  83 S14       30.10R
ST JOSEPH      FAIR      53  51  93 S7        30.06R
CHILLICOTHE      N/A     50  49  96 CALM      30.12R
KIRKSVILLE     FAIR      56  52  86 SW7       30.13R

$$
MOZ066>068-077>081-088>096-101>105-201200-
...SOUTHWEST MISSOURI...

CITY           SKY/WX    TMP DP  RH WIND       PRES   REMARKS
SPRINGFIELD    FAIR      54  50  86 S10       30.17R
JOPLIN         FAIR      56  52  86 S10       30.14R
BRANSON        FAIR      50  48  93 CALM      30.20R

$$
MOZ032>034-039>042-045>050-055>058-069>072-201200-
...CENTRAL MISSOURI...

CITY           SKY/WX    TMP DP  RH WIND       PRES   REMARKS
COLUMBIA       FAIR      52  48  86 S7        30.17R
JEFFERSON CITY FAIR      48  45  89 SE6       30.17R
ROLLA          FAIR      56  50  80 S14       30.19R
SEDALIA        FAIR      58  52  80 S13       30.15R
WHITEMAN AFB   CLEAR     52  48  87 S9        30.09R
WARRENSBURG    FAIR      52  48  87 S7        30.12S
OSAGE BEACH    FAIR      48  47  96 CALM      30.19R

$$
MOZ051-052-059>065-201200-
...EAST CENTRAL MISSOURI...

CITY           SKY/WX    TMP DP  RH WIND       PRES   REMARKS
ST LOUIS INTL  FAIR      53  50  89 E5        30.20R
SPIRIT OF STL  FAIR      45  45 100 CALM      30.19R
ST CHARLES     FAIR      49  49 100 E3        30.19R FOG

$$
MOZ072>076-082>087-097>100-106>115-201200-
...SOUTH CENTRAL AND SOUTHEAST MISSOURI...

CITY           SKY/WX    TMP DP  RH WIND       PRES   REMARKS
CAPE GIRARDEAU FAIR      45  44  97 CALM      30.23R
FARMINGTON     FAIR      56  49  77 S7        30.21R
POPLAR BLUFF   FAIR      43  43 100 N3        30.22S FOG
WEST PLAINS    FAIR      48  46  93 CALM      30.22R

$$


USA.gov is the U.S. government's official web portal to all federal, state and local government web resources and services.